FW5336 Weather Reports


Display with metric or nautical units.
time (UTC)temp
F
wind
direction
speed
MPH
gust
MPH
rain 1hr
in
rain 24hr
in
rain mn
in
humidity
%
barometer
mb
20260906135203 72 269 2.0 3.0 0.00 0.00 0.00 75 1021.0
20260906134658 71 270 2.0 3.0 0.00 0.00 0.00 78 1021.0
20260906134153 71 273 2.0 3.0 0.00 0.00 0.00 77 1021.0
20260906133649 71 257 1.0 5.0 0.00 0.00 0.00 78 1021.0
20260906133144 71 196 1.0 2.0 0.00 0.00 0.00 78 1020.9
20260906132639 71 280 1.0 2.0 0.00 0.00 0.00 79 1021.0
20260906132135 71 108 3.0 5.0 0.00 0.00 0.00 79 1021.0
20260906131630 70 245 0.0 1.0 0.00 0.00 0.00 81 1021.0
20260906131125 69 250 1.0 5.0 0.00 0.00 0.00 83 1020.9
20260906130621 68 289 1.0 2.0 0.00 0.00 0.00 84 1021.1
20260906130115 67 257 0.0 3.0 0.00 0.00 0.00 85 1021.1
20260906125613 67 243 0.0 2.0 0.00 0.00 0.00 85 1021.2
20260906125112 67 265 1.0 2.0 0.00 0.00 0.00 85 1021.0
20260906124608 67 302 1.0 3.0 0.00 0.00 0.00 85 1020.9
20260906124103 66 292 1.0 2.0 0.00 0.00 0.00 87 1021.0
20260906123602 66 262 0.0 1.0 0.00 0.00 0.00 88 1020.7
20260906123057 65 245 0.0 1.0 0.00 0.00 0.00 89 1020.8
20260906122556 65 246 0.0 2.0 0.00 0.00 0.00 90 1020.9
20260906122052 64 233 0.0 3.0 0.00 0.00 0.00 92 1020.8
20260906121548 64 263 0.0 1.0 0.00 0.00 0.00 93 1020.7
20260906121045 63 254 0.0 2.0 0.00 0.00 0.00 93 1020.8
20260906120539 63 295 1.0 1.0 0.00 0.00 0.00 94 1020.7
20260906120037 62 302 0.0 1.0 0.00 0.00 0.00 95 1020.6
20260906115536 62 252 0.0 1.0 0.00 0.00 0.00 95 1020.4
20260906115032 61 275 0.0 1.0 0.00 0.00 0.00 95 1020.6
20260906114526 61 323 0.0 1.0 0.00 0.00 0.00 96 1020.5
20260906114022 61 285 0.0 1.0 0.00 0.00 0.00 96 1020.5
20260906113520 61 277 0.0 0.0 0.00 0.00 0.00 96 1020.4
20260906113016 61 275 1.0 1.0 0.00 0.00 0.00 96 1020.3
20260906112511 60 295 1.0 1.0 0.00 0.00 0.00 96 1020.3
20260906112007 60 254 0.0 1.0 0.00 0.00 0.00 96 1020.2
20260906111507 60 277 0.0 0.0 0.00 0.00 0.00 96 1020.0
20260906111002 60 329 0.0 1.0 0.00 0.00 0.00 96 1019.9
20260906110456 60 277 1.0 1.0 0.00 0.00 0.00 96 1019.8
20260906105955 60 281 1.0 2.0 0.00 0.00 0.00 96 1020.0
20260906105451 60 248 1.0 1.0 0.00 0.00 0.00 96 1019.9
20260906104947 60 245 1.0 1.0 0.00 0.00 0.00 96 1019.8
20260906104446 60 235 0.0 0.0 0.00 0.00 0.00 96 1019.7
20260906103945 60 236 0.0 1.0 0.00 0.00 0.00 96 1019.8
20260906103443 60 242 0.0 1.0 0.00 0.00 0.00 96 1019.8
20260906102939 60 247 0.0 0.0 0.00 0.00 0.00 96 1019.8
20260906102438 60 238 1.0 1.0 0.00 0.00 0.00 96 1019.6
20260906101933 60 296 0.0 1.0 0.00 0.00 0.00 96 1019.8
20260906101428 60 236 0.0 0.0 0.00 0.00 0.00 96 1019.5
20260906100924 60 239 0.0 0.0 0.00 0.00 0.00 96 1019.6
20260906100424 60 238 0.0 2.0 0.00 0.00 0.00 96 1019.7
20260906095918 60 241 0.0 1.0 0.00 0.00 0.00 96 1019.7
20260906095414 60 257 1.0 1.0 0.00 0.00 0.00 96 1019.4
20260906094908 60 238 0.0 1.0 0.00 0.00 0.00 96 1019.6
20260906094403 60 235 0.0 0.0 0.00 0.00 0.00 96 1019.7
20260906093859 60 298 0.0 1.0 0.00 0.00 0.00 96 1019.7
20260906093355 60 256 1.0 1.0 0.00 0.00 0.00 96 1019.6
20260906092855 60 277 0.0 1.0 0.00 0.00 0.00 96 1019.6
20260906092355 60 241 0.0 1.0 0.00 0.00 0.00 96 1019.8
20260906091850 60 236 0.0 1.0 0.00 0.00 0.00 96 1019.6
20260906091347 59 239 0.0 0.0 0.00 0.00 0.00 95 1019.5
20260906090843 59 239 0.0 0.0 0.00 0.00 0.00 95 1019.7
20260906090342 59 239 0.0 0.0 0.00 0.00 0.00 95 1019.6
20260906085836 59 236 0.0 0.0 0.00 0.00 0.00 95 1019.7
20260906085336 59 239 0.0 0.0 0.00 0.00 0.00 95 1019.5
20260906084830 59 239 0.0 0.0 0.00 0.00 0.00 94 1019.6
20260906084330 60 239 0.0 0.0 0.00 0.00 0.00 94 1019.4
20260906083825 60 241 0.0 0.0 0.00 0.00 0.00 94 1019.4
20260906083320 60 241 0.0 0.0 0.00 0.00 0.00 94 1019.5
20260906082814 60 248 0.0 0.0 0.00 0.00 0.00 94 1019.3
20260906082310 60 256 0.0 1.0 0.00 0.00 0.00 93 1019.3
20260906081806 60 239 0.0 0.0 0.00 0.00 0.00 93 1019.3
20260906081301 60 245 0.0 0.0 0.00 0.00 0.00 93 1019.3
20260906080757 60 256 0.0 0.0 0.00 0.00 0.00 93 1019.3
20260906080248 60 249 0.0 0.0 0.00 0.00 0.00 92 1019.2
20260906075748 60 242 0.0 0.0 0.00 0.00 0.00 92 1019.3
20260906075247 61 239 0.0 0.0 0.00 0.00 0.00 92 1019.5
20260906074743 61 242 0.0 1.0 0.00 0.00 0.00 91 1019.5
20260906074242 61 286 0.0 1.0 0.00 0.00 0.00 91 1019.4
20260906073742 61 313 2.0 2.0 0.00 0.00 0.00 91 1019.3
20260906073237 61 291 1.0 1.0 0.00 0.00 0.00 91 1019.3
20260906072732 61 287 1.0 1.0 0.00 0.00 0.00 91 1019.2
20260906072228 61 286 1.0 1.0 0.00 0.00 0.00 91 1019.1
20260906071724 61 277 0.0 1.0 0.00 0.00 0.00 91 1019.1
20260906071224 61 279 0.0 1.0 0.00 0.00 0.00 91 1019.2
20260906070720 60 245 0.0 0.0 0.00 0.00 0.00 91 1018.9
20260906070216 60 256 0.0 0.0 0.00 0.00 0.00 91 1018.9
20260906065715 60 241 0.0 0.0 0.00 0.00 0.00 90 1018.9
20260906065211 61 242 0.0 0.0 0.00 0.00 0.00 90 1019.0
20260906064706 61 242 0.0 1.0 0.00 0.00 0.00 89 1019.2
20260906064201 61 240 0.0 0.0 0.00 0.00 0.00 89 1019.2
20260906063656 61 241 0.0 0.0 0.00 0.00 0.00 88 1018.9
20260906063152 61 268 0.0 1.0 0.00 0.00 0.00 88 1019.0
20260906062648 61 245 0.0 1.0 0.00 0.00 0.00 88 1019.0
20260906062146 61 242 0.0 1.0 0.00 0.00 0.00 88 1018.8
20260906061643 61 252 0.0 1.0 0.00 0.00 0.00 88 1019.0
20260906061143 62 242 0.0 0.0 0.00 0.00 0.00 87 1019.0
20260906060639 62 249 1.0 1.0 0.00 0.00 0.00 87 1018.9
20260906060136 62 277 1.0 1.0 0.00 0.00 0.00 87 1019.1
20260906055632 62 242 0.0 1.0 0.00 0.00 0.00 87 1019.1
20260906055127 62 288 1.0 1.0 0.00 0.00 0.00 87 1019.0
20260906054622 61 242 0.0 0.0 0.00 0.00 0.00 87 1018.8
20260906054117 62 241 0.0 0.0 0.00 0.00 0.00 86 1018.8
20260906053613 62 242 0.0 0.0 0.00 0.00 0.00 85 1019.0
20260906053108 62 242 0.0 0.0 0.00 0.00 0.00 85 1019.0
20260906052604 63 244 0.0 0.0 0.00 0.00 0.00 84 1019.1
20260906052101 63 242 0.0 1.0 0.00 0.00 0.00 84 1018.9
20260906051556 63 249 0.0 1.0 0.00 0.00 0.00 83 1019.1
20260906051051 63 242 0.0 1.0 0.00 0.00 0.00 83 1019.2
20260906050546 63 277 0.0 1.0 0.00 0.00 0.00 83 1019.2
20260906050042 63 283 1.0 1.0 0.00 0.00 0.00 83 1019.0
20260906045539 63 245 1.0 1.0 0.00 0.00 0.00 83 1018.9
20260906045036 63 242 0.0 0.0 0.00 0.00 0.00 82 1019.0
20260906044531 63 249 0.0 1.0 0.00 0.00 0.00 82 1019.1
20260906044026 63 276 0.0 1.0 0.00 0.00 0.00 82 1019.2
20260906043522 64 242 0.0 1.0 0.00 0.00 0.00 81 1019.2
20260906043018 64 241 0.0 0.0 0.00 0.00 0.00 80 1019.1
20260906042516 64 248 0.0 0.0 0.00 0.00 0.00 80 1019.0
20260906042011 64 245 0.0 1.0 0.00 0.00 0.00 79 1019.0
20260906041508 64 172 0.0 0.0 0.00 0.00 0.00 79 1019.0
20260906041007 65 249 0.0 1.0 0.00 0.00 0.00 78 1018.7
20260906040503 65 248 0.0 1.0 0.00 0.00 0.00 77 1019.0
20260906035957 65 236 1.0 2.0 0.00 0.14 0.14 77 1018.9
20260906035453 65 234 0.0 2.0 0.00 0.14 0.14 76 1019.0
20260906034948 66 241 0.0 1.0 0.00 0.14 0.14 75 1019.1
20260906034443 66 245 1.0 1.0 0.00 0.14 0.14 75 1018.9
20260906033938 66 241 2.0 2.0 0.00 0.14 0.14 75 1019.1
20260906033432 66 286 0.0 1.0 0.00 0.14 0.14 75 1019.0
20260906032928 66 327 1.0 2.0 0.00 0.14 0.14 74 1018.9
20260906032419 67 220 1.0 1.0 0.00 0.14 0.14 73 1018.9
20260906031913 67 245 1.0 2.0 0.00 0.14 0.14 73 1019.0
20260906031408 67 248 1.0 2.0 0.00 0.14 0.14 73 1018.9
20260906030903 67 256 1.0 2.0 0.00 0.14 0.14 73 1018.8
20260906030358 67 234 1.0 1.0 0.00 0.14 0.14 72 1018.8
20260906025853 68 306 2.0 3.0 0.00 0.14 0.14 71 1018.7
20260906025347 68 42 1.0 2.0 0.00 0.14 0.14 71 1018.7
20260906024846 68 225 0.0 2.0 0.00 0.14 0.14 70 1018.8
20260906024345 68 256 0.0 1.0 0.00 0.14 0.14 69 1018.7
20260906023840 68 319 0.0 2.0 0.00 0.14 0.14 69 1018.7
20260906023337 69 212 1.0 3.0 0.00 0.14 0.14 68 1018.7
20260906022832 69 147 1.0 2.0 0.00 0.14 0.14 67 1018.8
20260906022326 69 233 2.0 2.0 0.00 0.14 0.14 67 1018.8
20260906021822 69 183 1.0 5.0 0.00 0.14 0.14 66 1018.7
20260906021321 70 107 1.0 1.0 0.00 0.14 0.14 64 1018.6
20260906020816 70 203 1.0 2.0 0.00 0.14 0.14 63 1018.7
20260906020315 70 220 0.0 1.0 0.00 0.14 0.14 62 1018.5
20260906015810 70 275 1.0 2.0 0.00 0.14 0.14 62 1018.5
20260906015308 70 207 1.0 2.0 0.00 0.14 0.14 63 1018.5
20260906014803 70 325 0.0 0.0 0.00 0.14 0.14 63 1018.6
20260906014259 70 245 0.0 2.0 0.00 0.14 0.14 63 1018.6
20260906013754 71 245 1.0 2.0 0.00 0.14 0.14 62 1018.4
20260906013249 71 322 2.0 2.0 0.00 0.14 0.14 64 1018.3
20260906012745 71 95 1.0 2.0 0.00 0.14 0.14 63 1018.3
20260906012239 71 40 0.0 1.0 0.00 0.14 0.14 64 1018.1
20260906011734 71 212 0.0 1.0 0.00 0.14 0.14 64 1018.2
20260906011229 72 144 0.0 1.0 0.00 0.14 0.14 64 1018.0
20260906010724 72 36 0.0 1.0 0.00 0.14 0.14 63 1018.1
20260906010220 72 43 0.0 3.0 0.00 0.14 0.14 63 1018.0
20260906005715 72 204 1.0 6.0 0.00 0.14 0.14 62 1017.9
20260906005215 72 335 0.0 6.0 0.00 0.14 0.14 63 1017.9
20260906004713 73 102 1.0 2.0 0.00 0.14 0.14 62 1017.7
20260906004208 73 193 1.0 3.0 0.00 0.14 0.14 62 1017.8
20260906003658 73 164 0.0 1.0 0.00 0.14 0.14 61 1017.7
20260906003153 73 63 1.0 1.0 0.00 0.14 0.14 61 1017.4
20260906002648 73 27 2.0 2.0 0.00 0.14 0.14 60 1017.3
20260906002143 73 195 1.0 1.0 0.00 0.14 0.14 61 1017.4
20260906001638 74 224 0.0 1.0 0.00 0.14 0.14 61 1017.2
20260906001137 74 180 1.0 2.0 0.00 0.14 0.14 61 1017.4
20260906000633 74 212 0.0 3.0 0.00 0.14 0.14 60 1017.6
20260906000129 74 231 0.0 3.0 0.00 0.14 0.14 59 1017.4
20260905235627 75 115 2.0 3.0 0.00 0.14 0.14 58 1017.4
20260905235122 75 185 1.0 5.0 0.00 0.14 0.14 58 1017.3
20260905234617 75 177 1.0 1.0 0.00 0.14 0.14 58 1017.3
20260905234113 75 190 1.0 1.0 0.00 0.14 0.14 58 1017.3
20260905233608 76 177 2.0 6.0 0.00 0.14 0.14 57 1017.4
20260905233103 76 18 0.0 5.0 0.00 0.14 0.14 56 1017.4
20260905232558 76 168 3.0 3.0 0.00 0.14 0.14 56 1017.3
20260905232054 76 343 3.0 8.0 0.00 0.14 0.14 56 1017.4
20260905231549 77 6 1.0 3.0 0.00 0.14 0.14 55 1017.4
20260905231045 77 185 0.0 5.0 0.00 0.14 0.14 54 1017.2
20260905230544 77 159 2.0 2.0 0.00 0.14 0.14 53 1017.0
20260905230043 77 232 1.0 2.0 0.00 0.14 0.14 52 1017.3
20260905225537 77 156 2.0 3.0 0.00 0.14 0.14 52 1017.0
20260905225032 78 40 1.0 8.0 0.00 0.14 0.14 51 1017.2
20260905224527 78 181 5.0 7.0 0.00 0.14 0.14 52 1017.0
20260905224026 78 156 3.0 11.0 0.00 0.14 0.14 52 1016.9
20260905223525 78 144 5.0 9.0 0.00 0.14 0.14 51 1016.6
20260905223019 79 110 2.0 5.0 0.00 0.14 0.14 51 1017.0
20260905222514 79 147 3.0 5.0 0.00 0.14 0.14 51 1016.9
20260905222009 79 256 0.0 5.0 0.00 0.14 0.14 52 1016.7
20260905221506 79 2 1.0 6.0 0.00 0.14 0.14 54 1016.7
20260905221002 78 263 0.0 2.0 0.00 0.14 0.14 57 1016.7
20260905220457 79 177 3.0 5.0 0.00 0.14 0.14 57 1016.9
20260905215956 78 270 1.0 2.0 0.00 0.14 0.14 57 1016.7
20260905215452 78 101 2.0 5.0 0.00 0.14 0.14 59 1016.6
20260905214948 78 260 0.0 1.0 0.00 0.14 0.14 59 1016.7
20260905214443 79 152 2.0 6.0 0.00 0.14 0.14 58 1016.5
20260905213938 79 153 2.0 3.0 0.00 0.14 0.14 58 1016.5
20260905213434 79 119 5.0 7.0 0.00 0.14 0.14 58 1016.5
20260905212929 78 176 2.0 7.0 0.00 0.14 0.14 59 1016.6
20260905212424 79 203 3.0 5.0 0.00 0.14 0.14 59 1016.5
20260905211923 80 65 2.0 6.0 0.00 0.14 0.14 57 1016.6
20260905211419 80 229 0.0 1.0 0.00 0.14 0.14 58 1016.3
20260905210915 79 303 2.0 3.0 0.00 0.14 0.14 58 1016.4
20260905210414 79 173 1.0 7.0 0.00 0.14 0.14 59 1016.5
20260905205914 79 127 7.0 8.0 0.00 0.14 0.14 58 1016.5
20260905205403 80 178 5.0 6.0 0.00 0.14 0.14 58 1016.3
20260905204902 79 208 3.0 8.0 0.00 0.14 0.14 58 1016.6
20260905204358 80 180 3.0 6.0 0.00 0.14 0.14 59 1016.4
20260905203851 80 98 4.0 7.0 0.00 0.14 0.14 59 1016.4
20260905203347 80 117 5.0 8.0 0.00 0.14 0.14 57 1016.6
20260905202842 81 218 3.0 6.0 0.00 0.14 0.14 57 1016.6
20260905202337 80 253 1.0 8.0 0.00 0.14 0.14 57 1016.7
20260905201833 80 150 1.0 6.0 0.00 0.14 0.14 56 1016.7
20260905201328 79 201 2.0 5.0 0.00 0.14 0.14 58 1017.0
20260905200822 79 162 6.0 7.0 0.00 0.14 0.14 59 1016.9
20260905200319 79 310 1.0 5.0 0.00 0.14 0.14 58 1016.9
20260905195816 79 139 3.0 5.0 0.00 0.14 0.14 60 1016.7
20260905195311 79 45 2.0 7.0 0.00 0.14 0.14 59 1017.2
20260905194807 78 145 3.0 5.0 0.00 0.14 0.14 60 1017.1
20260905194306 78 82 3.0 6.0 0.00 0.14 0.14 61 1017.1
20260905193800 78 134 2.0 8.0 0.00 0.14 0.14 59 1017.1
20260905193256 79 134 2.0 6.0 0.00 0.14 0.14 60 1016.9
20260905192751 78 225 3.0 5.0 0.00 0.14 0.14 60 1017.1
20260905192247 78 213 2.0 9.0 0.00 0.14 0.14 61 1017.1
20260905191747 79 127 2.0 5.0 0.00 0.14 0.14 61 1017.2
20260905191245 79 176 2.0 5.0 0.00 0.14 0.14 62 1017.0
20260905190743 79 210 4.0 7.0 0.00 0.14 0.14 61 1017.3
20260905190242 79 104 2.0 5.0 0.00 0.14 0.14 60 1017.1
20260905185741 79 128 3.0 5.0 0.00 0.14 0.14 61 1017.1
20260905185237 79 306 1.0 3.0 0.00 0.14 0.14 60 1017.2
20260905184731 78 177 3.0 6.0 0.00 0.14 0.14 61 1017.3
20260905184230 78 134 1.0 3.0 0.00 0.14 0.14 61 1017.2
20260905183729 78 200 0.0 5.0 0.00 0.14 0.14 63 1017.5
20260905183225 78 132 3.0 5.0 0.00 0.14 0.14 61 1017.4
20260905182719 79 145 6.0 8.0 0.00 0.14 0.14 59 1017.4
20260905182219 78 164 4.0 8.0 0.00 0.14 0.14 61 1017.2
20260905181714 78 134 3.0 3.0 0.00 0.14 0.14 62 1017.2
20260905181213 79 113 3.0 7.0 0.00 0.14 0.14 58 1017.2
20260905180707 79 243 2.0 6.0 0.00 0.14 0.14 60 1017.3
20260905180203 78 351 3.0 5.0 0.00 0.14 0.14 61 1017.4
20260905175702 78 181 6.0 10.0 0.00 0.14 0.14 59 1017.5
20260905175157 78 99 3.0 3.0 0.00 0.14 0.14 59 1017.3
20260905174653 78 136 3.0 9.0 0.00 0.14 0.14 61 1017.2
20260905174148 79 195 6.0 9.0 0.00 0.14 0.14 60 1017.5
20260905173644 78 130 5.0 7.0 0.00 0.14 0.14 61 1017.4
20260905173140 79 153 4.0 9.0 0.00 0.14 0.14 60 1017.4
20260905172639 78 84 4.0 7.0 0.00 0.14 0.14 60 1017.2
20260905172133 79 235 2.0 7.0 0.00 0.14 0.14 60 1017.3
20260905171630 78 154 4.0 8.0 0.00 0.14 0.14 63 1017.3
20260905171125 78 138 6.0 7.0 0.00 0.14 0.14 62 1017.6
20260905170622 78 6 0.0 3.0 0.00 0.14 0.14 64 1017.5
20260905170117 78 5 1.0 2.0 0.00 0.14 0.14 64 1017.6
20260905165611 78 239 1.0 2.0 0.00 0.14 0.14 64 1017.9
20260905165107 78 196 3.0 5.0 0.00 0.14 0.14 65 1017.7
20260905164602 78 192 2.0 3.0 0.00 0.14 0.14 66 1017.7
20260905164056 78 43 1.0 3.0 0.00 0.14 0.14 66 1017.7
20260905163552 77 310 1.0 2.0 0.00 0.14 0.14 68 1017.5
20260905163048 77 310 3.0 3.0 0.00 0.14 0.14 69 1017.4
20260905162545 77 30 0.0 5.0 0.00 0.14 0.14 68 1017.6
20260905162043 78 136 4.0 6.0 0.00 0.14 0.14 67 1017.5
20260905161543 79 211 1.0 6.0 0.00 0.14 0.14 64 1017.5
20260905161041 78 60 3.0 7.0 0.00 0.14 0.14 66 1017.5
20260905160540 77 282 3.0 5.0 0.00 0.14 0.14 68 1017.4
20260905160035 77 156 4.0 6.0 0.00 0.14 0.14 67 1017.6
20260905155535 78 166 2.0 5.0 0.00 0.14 0.14 66 1017.5
20260905155033 77 169 3.0 7.0 0.00 0.14 0.14 68 1017.4
20260905154528 77 139 3.0 6.0 0.00 0.14 0.14 72 1017.4
20260905154024 76 192 5.0 8.0 0.00 0.14 0.14 72 1017.2
20260905153519 76 170 2.0 6.0 0.00 0.14 0.14 72 1017.4
20260905153014 76 182 2.0 6.0 0.00 0.14 0.14 73 1017.3
20260905152514 76 304 0.0 2.0 0.00 0.14 0.14 76 1017.3
20260905152009 76 200 2.0 3.0 0.00 0.14 0.14 76 1017.2
20260905151504 74 106 1.0 2.0 0.00 0.14 0.14 80 1017.2
20260905150959 74 148 1.0 2.0 0.00 0.14 0.14 81 1017.2
20260905150454 74 158 2.0 2.0 0.00 0.14 0.14 81 1017.1
20260905145951 74 109 0.0 2.0 0.00 0.14 0.14 83 1017.1
20260905145445 73 218 1.0 1.0 0.00 0.14 0.14 84 1017.0
20260905144944 74 27 0.0 1.0 0.00 0.14 0.14 83 1017.0
20260905144440 74 280 1.0 1.0 0.00 0.14 0.14 83 1017.1
20260905143939 73 249 0.0 2.0 0.00 0.14 0.14 85 1017.0
20260905143432 72 301 0.0 1.0 0.00 0.14 0.14 86 1016.9
20260905142933 71 186 2.0 5.0 0.00 0.14 0.14 88 1016.7
20260905142432 71 345 0.0 1.0 0.00 0.14 0.14 91 1016.6
20260905141928 71 317 0.0 2.0 0.00 0.14 0.14 93 1016.5
20260905141422 70 259 0.0 0.0 0.00 0.14 0.14 94 1016.7
20260905140919 70 58 0.0 1.0 0.00 0.14 0.14 95 1016.7
20260905140414 70 259 0.0 0.0 0.00 0.14 0.14 96 1016.5
20260905135912 70 262 0.0 1.0 0.00 0.14 0.14 96 1016.6